Regional Weather Roundup
Issued by NWS

Home | Current Version | Previous Version | Graphics & Text | Print | Product List | Glossary On
Versions: 1 2 3 4 5 6 7 8 9 10 11 12 13 14 15 16 17 18 19 20 21 22 23 24 25 26 27 28 29 30 31 32 33 34 35 36 37 38 39 40 41 42 43 44 45 46 47 48 49 50
000
ASUS45 KABQ 300201
RWRNM
NEW MEXICO REGIONAL WEATHER ROUNDUP
NATIONAL WEATHER SERVICE ALBUQUERQUE NM
800 PM MDT SAT AUG 29 2015

NOTE: "FAIR" MEANS FEW OR NO CLOUDS BELOW 12,000 FEET AGL WITH NO
       SIGNIFICANT WEATHER OR OBSTRUCTIONS TO VISION.

      THIS PRODUCT IS RELEASED AS TWO VERSIONS.  ONE VERSION NEAR
      THE TOP OF THE HOUR CONTAINING PRELIMINARY DATA FROM ALBUQUERQUE
      AND OTHER STATIONS.  A FINAL VERSION WITH ADDITIONAL DATA IS
      ISSUED ABOUT 10 MINUTES AFTER THE HOUR.

NMZ501-503-504-510>518-300300-
NORTHWEST PLATEAU/NORTHCENTRAL MOUNTAINS

CITY           SKY/WX    TMP DP  RH WIND       PRES   REMARKS
FARMINGTON     CLEAR     82  39  21 SW5       30.13S
SANTA FE       PTCLDY    71  48  43 SE3       30.26F
TAOS           PTCLDY    64  37  36 E10       30.35F
ANGEL FIRE     FAIR      55  47  77 CALM      30.46S

$$
NMZ402-403-502-505>509-300300-
WESTCENTRAL MOUNTAINS/SOUTHWEST MOUNTAINS

CITY           SKY/WX    TMP DP  RH WIND       PRES   REMARKS
GALLUP         CLOUDY    75  43  31 S13       30.24S
GRANTS         MOCLDY    75  44  32 SE12G20   30.28R
SILVER CITY      N/A     75  55  50 NW9       30.19S

$$
NMZ407-409-411-412-300300-
SOUTHERN DESERTS

CITY           SKY/WX    TMP DP  RH WIND       PRES   REMARKS
DEMING         PTCLDY    83  50  31 SE5       30.07F
HOLLOMAN AFB   PTCLDY    80  62  55 N7        30.07S
ALAMOGORDO     PTCLDY    81  59  47 CALM      30.10R
T OR C         MOCLDY    79  52  38 E5        30.11S

$$
NMZ519>523-300300-
CENTRAL VALLEYS/CENTRAL HIGHLANDS

CITY           SKY/WX    TMP DP  RH WIND       PRES   REMARKS
ALBUQUERQUE    PTCLDY    77  44  30 E13       30.18S
DOUBLE EAGLE   PTCLDY    72  45  37 E9        30.22S
MORIARTY ARPT  MOCLDY    71  44  38 SE6       30.29R
CLINES CORNERS PTCLDY    67  46  47 E7        30.33S
BELEN          FAIR      80  44  28 SE3       30.17R
SOCORRO        NOT AVBL

$$
NMZ524>526-539-540-300300-
SOUTHCENTRAL MOUNTAINS

CITY           SKY/WX    TMP DP  RH WIND       PRES   REMARKS
RUIDOSO        CLEAR     66  50  55 MISG      30.34R

$$
NMZ527>531-300300-
NORTHEAST HIGHLANDS/NORTHEAST PLAINS

CITY           SKY/WX    TMP DP  RH WIND       PRES   REMARKS
LAS VEGAS      PTCLDY    68  43  40 MISG      30.34R
RATON          PTCLDY    68  46  45 CALM      30.28S
CLAYTON        CLEAR     67  47  48 SE9       30.22R

$$
NMZ532>537-300300-
EASTCENTRAL PLAINS

CITY           SKY/WX    TMP DP  RH WIND       PRES   REMARKS
TUCUMCARI      CLEAR     75  56  51 SE5       30.13F
CANNON AFB     PTCLDY    71  58  64 S1        30.16F
CLOVIS AIRPORT PTCLDY    70  57  64 SE6       30.18S

$$
NMZ028-029-538-300300-
SOUTHEAST PLAINS

CITY           SKY/WX    TMP DP  RH WIND       PRES   REMARKS
ROSWELL        MOCLDY    73  60  63 S14       30.11S
ARTESIA        TSTM      72  61  68 S15G23    30.13R
CARLSBAD       CLEAR     82  54  37 E7        30.08
HOBBS          PTCLDY    70  59  68 CALM      30.14R


$$


USA.gov is the U.S. government's official web portal to all federal, state and local government web resources and services.